Location: Arrodets-la-Barthe
(43.0306°N, 0.2829°E)
Time: 12:46:18
(UTC+00:00)

SWARM A - Pass Details

Date: 24 October 2021
Orbit: 424 x 429 km, 87.4° (Epoch: 07 December)

Event Time Altitude Azimuth Distance (km) Brightness Sun altitude
Rises 18:23:40 0° 174° (S) 2,384 7.9 -15.6°
Reaches altitude 10° 18:25:42 10° 172° (S) 1,524 6.9 -15.9°
Maximum altitude 18:28:58 67° 90° (E) 472 4.1 -16.5°
Drops below altitude 10° 18:32:17 10° 7° (N) 1,541 6.9 -17.1°
Sets 18:34:20 0° 5° (N) 2,414 8.0 -17.5°
